| time (UTC) | temp C | wind direction | speed KPH | gust KPH | rain 1hr cm | rain 24hr cm | rain mn cm | humidity % | barometer mb |
| 20260906155346 | 30 | 114 | 11.3 | 16.1 | 0.00 | 0.00 | 0.00 | 77 | 1016.7 |
| 20260906154846 | 30 | 83 | 4.8 | 14.5 | 0.00 | 0.00 | 0.00 | 78 | 1016.4 |
| 20260906154346 | 29 | 73 | 9.7 | 16.1 | 0.00 | 0.00 | 0.00 | 77 | 1016.4 |
| 20260906153846 | 29 | 90 | 6.4 | 16.1 | 0.00 | 0.00 | 0.00 | 77 | 1016.3 |
| 20260906153346 | 29 | 84 | 4.8 | 16.1 | 0.00 | 0.00 | 0.00 | 79 | 1016.5 |
| 20260906152845 | 28 | 60 | 8.0 | 17.7 | 0.00 | 0.00 | 0.00 | 79 | 1016.3 |
| 20260906152603 | 28 | 22 | 6.4 | 17.7 | 0.00 | 0.00 | 0.00 | 80 | 1016.5 |
| 20260906151845 | 28 | 38 | 9.7 | 17.7 | 0.00 | 0.00 | 0.00 | 80 | 1016.4 |
| 20260906151825 | 28 | 34 | 9.7 | 17.7 | 0.00 | 0.00 | 0.00 | 80 | 1016.4 |
| 20260906150844 | 27 | 65 | 6.4 | 16.1 | 0.00 | 0.00 | 0.00 | 80 | 1016.3 |
| 20260906150344 | 27 | 55 | 9.7 | 16.1 | 0.00 | 0.00 | 0.00 | 82 | 1016.3 |
| 20260906145844 | 27 | 64 | 9.7 | 14.5 | 0.00 | 0.00 | 0.00 | 82 | 1016.3 |
| 20260906145345 | 27 | 81 | 3.2 | 12.9 | 0.00 | 0.00 | 0.00 | 82 | 1016.2 |
| 20260906144844 | 27 | 67 | 8.0 | 12.9 | 0.00 | 0.00 | 0.00 | 84 | 1016.4 |
| 20260906144344 | 27 | 32 | 9.7 | 12.9 | 0.00 | 0.00 | 0.00 | 84 | 1016.6 |
| 20260906143845 | 26 | 36 | 4.8 | 11.3 | 0.00 | 0.00 | 0.00 | 84 | 1016.6 |
| 20260906143345 | 26 | 84 | 4.8 | 11.3 | 0.00 | 0.00 | 0.00 | 85 | 1016.5 |
| 20260906142847 | 26 | 55 | 3.2 | 14.5 | 0.00 | 0.00 | 0.00 | 86 | 1016.8 |
| 20260906142609 | 26 | 24 | 9.7 | 14.5 | 0.00 | 0.00 | 0.00 | 88 | 1016.4 |
| 20260906141844 | 26 | 66 | 4.8 | 11.3 | 0.00 | 0.00 | 0.00 | 88 | 1016.5 |
| 20260906141345 | 26 | 62 | 3.2 | 11.3 | 0.00 | 0.00 | 0.00 | 88 | 1016.3 |
| 20260906140845 | 26 | 58 | 6.4 | 11.3 | 0.00 | 0.00 | 0.00 | 89 | 1016.4 |
| 20260906140344 | 25 | 41 | 4.8 | 11.3 | 0.00 | 0.00 | 0.00 | 90 | 1016.3 |
| 20260906135844 | 25 | 60 | 4.8 | 11.3 | 0.00 | 0.00 | 0.00 | 90 | 1016.3 |
| 20260906135344 | 25 | 77 | 6.4 | 11.3 | 0.00 | 0.00 | 0.00 | 91 | 1016.2 |
| 20260906134845 | 25 | 81 | 4.8 | 12.9 | 0.00 | 0.00 | 0.00 | 91 | 1016.3 |
| 20260906134345 | 25 | 63 | 6.4 | 16.1 | 0.00 | 0.00 | 0.00 | 92 | 1016.1 |
| 20260906133844 | 24 | 98 | 6.4 | 16.1 | 0.00 | 0.00 | 0.00 | 93 | 1016.1 |
| 20260906133345 | 24 | 101 | 6.4 | 16.1 | 0.00 | 0.00 | 0.00 | 93 | 1016.0 |
| 20260906132845 | 24 | 75 | 6.4 | 16.1 | 0.00 | 0.00 | 0.00 | 94 | 1016.2 |
| 20260906132344 | 24 | 45 | 6.4 | 14.5 | 0.00 | 0.00 | 0.00 | 94 | 1016.0 |
| 20260906131844 | 23 | 70 | 8.0 | 14.5 | 0.00 | 0.00 | 0.00 | 95 | 1015.9 |
| 20260906131344 | 23 | 77 | 6.4 | 14.5 | 0.00 | 0.00 | 0.00 | 95 | 1015.9 |
| 20260906130844 | 23 | 76 | 9.7 | 14.5 | 0.00 | 0.00 | 0.00 | 95 | 1015.8 |
| 20260906130345 | 23 | 92 | 4.8 | 14.5 | 0.00 | 0.00 | 0.00 | 95 | 1015.8 |
| 20260906125845 | 23 | 78 | 8.0 | 9.7 | 0.00 | 0.00 | 0.00 | 95 | 1015.8 |
| 20260906125345 | 23 | 56 | 4.8 | 9.7 | 0.00 | 0.00 | 0.00 | 95 | 1016.1 |
| 20260906125109 | 23 | 63 | 3.2 | 6.4 | 0.00 | 0.00 | 0.00 | 95 | 1016.0 |
| 20260906124344 | 23 | 62 | 3.2 | 6.4 | 0.00 | 0.00 | 0.00 | 95 | 1015.8 |
| 20260906123847 | 23 | 56 | 1.6 | 9.7 | 0.00 | 0.00 | 0.00 | 95 | 1015.7 |
| 20260906123347 | 23 | 61 | 3.2 | 9.7 | 0.00 | 0.00 | 0.00 | 95 | 1015.9 |
| 20260906122847 | 23 | 51 | 4.8 | 11.3 | 0.00 | 0.00 | 0.00 | 95 | 1015.6 |
| 20260906122347 | 23 | 35 | 6.4 | 11.3 | 0.00 | 0.00 | 0.00 | 95 | 1015.8 |
| 20260906121847 | 23 | 35 | 4.8 | 11.3 | 0.00 | 0.00 | 0.00 | 95 | 1015.7 |
| 20260906121347 | 23 | 13 | 4.8 | 6.4 | 0.00 | 0.00 | 0.00 | 95 | 1015.8 |
| 20260906120847 | 23 | 40 | 1.6 | 4.8 | 0.00 | 0.00 | 0.00 | 95 | 1015.7 |
| 20260906120347 | 23 | 40 | 3.2 | 9.7 | 0.00 | 0.00 | 0.00 | 95 | 1015.5 |
| 20260906115847 | 23 | 39 | 1.6 | 11.3 | 0.00 | 0.00 | 0.00 | 95 | 1015.5 |
| 20260906115347 | 23 | 37 | 6.4 | 11.3 | 0.00 | 0.00 | 0.00 | 95 | 1015.6 |
| 20260906114847 | 23 | 34 | 6.4 | 9.7 | 0.00 | 0.00 | 0.00 | 95 | 1015.4 |
| 20260906114335 | 23 | 29 | 4.8 | 9.7 | 0.00 | 0.00 | 0.00 | 95 | 1015.4 |
| 20260906113835 | 23 | 30 | 6.4 | 9.7 | 0.00 | 0.00 | 0.00 | 95 | 1015.3 |
| 20260906113335 | 23 | 30 | 6.4 | 9.7 | 0.00 | 0.00 | 0.00 | 95 | 1015.4 |
| 20260906112835 | 23 | 47 | 6.4 | 9.7 | 0.00 | 0.00 | 0.00 | 95 | 1015.4 |
| 20260906112557 | 23 | 38 | 4.8 | 4.8 | 0.00 | 0.00 | 0.00 | 95 | 1015.2 |
| 20260906111835 | 23 | 42 | 1.6 | 4.8 | 0.00 | 0.00 | 0.00 | 95 | 1015.1 |
| 20260906111332 | 23 | 35 | 3.2 | 4.8 | 0.00 | 0.00 | 0.00 | 95 | 1015.2 |
| 20260906110832 | 23 | 48 | 4.8 | 4.8 | 0.00 | 0.00 | 0.00 | 95 | 1015.4 |
| 20260906110332 | 23 | 74 | 1.6 | 6.4 | 0.00 | 0.00 | 0.00 | 95 | 1015.3 |
| 20260906105832 | 23 | 67 | 1.6 | 6.4 | 0.00 | 0.00 | 0.00 | 95 | 1015.4 |
| 20260906105332 | 23 | 57 | 3.2 | 9.7 | 0.00 | 0.00 | 0.00 | 95 | 1015.3 |
| 20260906104833 | 23 | 69 | 3.2 | 9.7 | 0.00 | 0.00 | 0.00 | 95 | 1015.3 |
| 20260906104540 | 23 | 66 | 3.2 | 6.4 | 0.00 | 0.00 | 0.00 | 95 | 1015.1 |
| 20260906103821 | 23 | 70 | 3.2 | 6.4 | 0.00 | 0.00 | 0.00 | 95 | 1015.0 |
| 20260906103544 | 23 | 66 | 4.8 | 4.8 | 0.00 | 0.00 | 0.00 | 95 | 1015.4 |
| 20260906102821 | 23 | 67 | 3.2 | 9.7 | 0.00 | 0.00 | 0.00 | 95 | 1015.3 |
| 20260906102321 | 23 | 49 | 3.2 | 9.7 | 0.00 | 0.00 | 0.00 | 95 | 1015.1 |
| 20260906102038 | 23 | 49 | 3.2 | 6.4 | 0.00 | 0.00 | 0.00 | 95 | 1015.1 |
| 20260906101321 | 23 | 58 | 3.2 | 6.4 | 0.00 | 0.00 | 0.00 | 95 | 1015.0 |
| 20260906100808 | 23 | 40 | 1.6 | 4.8 | 0.00 | 0.00 | 0.00 | 95 | 1014.9 |
| 20260906100308 | 23 | 53 | 1.6 | 6.4 | 0.00 | 0.00 | 0.00 | 95 | 1014.7 |
| 20260906095757 | 23 | 55 | 4.8 | 6.4 | 0.00 | 0.00 | 0.00 | 95 | 1014.7 |
| 20260906095257 | 23 | 58 | 1.6 | 6.4 | 0.00 | 0.00 | 0.00 | 95 | 1014.8 |
| 20260906094757 | 23 | 42 | 3.2 | 9.7 | 0.00 | 0.00 | 0.00 | 95 | 1014.9 |
| 20260906094257 | 23 | 40 | 3.2 | 9.7 | 0.00 | 0.00 | 0.00 | 95 | 1014.6 |
| 20260906093757 | 23 | 58 | 3.2 | 6.4 | 0.00 | 0.00 | 0.00 | 94 | 1014.9 |
| 20260906093514 | 23 | 58 | 3.2 | 9.7 | 0.00 | 0.00 | 0.00 | 94 | 1014.7 |
| 20260906092758 | 23 | 22 | 4.8 | 9.7 | 0.00 | 0.00 | 0.00 | 94 | 1014.5 |
| 20260906092506 | 23 | 45 | 6.4 | 9.7 | 0.00 | 0.00 | 0.00 | 94 | 1014.6 |
| 20260906091745 | 23 | 36 | 4.8 | 6.4 | 0.00 | 0.00 | 0.00 | 94 | 1014.4 |
| 20260906091245 | 24 | 37 | 4.8 | 9.7 | 0.00 | 0.00 | 0.00 | 94 | 1014.3 |
| 20260906090744 | 24 | 51 | 3.2 | 11.3 | 0.00 | 0.00 | 0.00 | 94 | 1014.2 |
| 20260906090244 | 24 | 48 | 3.2 | 11.3 | 0.00 | 0.00 | 0.00 | 93 | 1014.2 |
| 20260906085744 | 24 | 36 | 4.8 | 9.7 | 0.00 | 0.00 | 0.00 | 93 | 1014.2 |
| 20260906085244 | 24 | 44 | 4.8 | 9.7 | 0.00 | 0.00 | 0.00 | 93 | 1014.4 |
| 20260906084744 | 24 | 36 | 6.4 | 9.7 | 0.00 | 0.00 | 0.00 | 93 | 1013.8 |
| 20260906084244 | 24 | 31 | 6.4 | 9.7 | 0.00 | 0.00 | 0.00 | 92 | 1013.9 |
| 20260906084002 | 24 | 10 | 3.2 | 6.4 | 0.00 | 0.00 | 0.00 | 92 | 1014.2 |
| 20260906083244 | 24 | 350 | 1.6 | 6.4 | 0.00 | 0.00 | 0.00 | 92 | 1014.0 |
| 20260906083012 | 24 | 352 | 4.8 | 6.4 | 0.00 | 0.00 | 0.00 | 92 | 1014.2 |
| 20260906082245 | 24 | 2 | 3.2 | 6.4 | 0.00 | 0.00 | 0.00 | 92 | 1013.9 |
| 20260906081744 | 24 | 10 | 1.6 | 9.7 | 0.00 | 0.00 | 0.00 | 91 | 1013.8 |
| 20260906081503 | 24 | 22 | 4.8 | 9.7 | 0.00 | 0.00 | 0.00 | 91 | 1014.0 |
| 20260906080747 | 24 | 38 | 3.2 | 6.4 | 0.00 | 0.00 | 0.00 | 91 | 1014.0 |
| 20260906080247 | 24 | 15 | 3.2 | 6.4 | 0.00 | 0.00 | 0.00 | 91 | 1014.0 |
| 20260906080237 | 25 | 29 | 3.2 | 6.4 | 0.00 | 0.00 | 0.00 | 91 | 1013.9 |
| 20260906075247 | 25 | 29 | 1.6 | 6.4 | 0.00 | 0.00 | 0.00 | 90 | 1013.8 |
| 20260906074747 | 25 | 25 | 4.8 | 6.4 | 0.00 | 0.00 | 0.00 | 90 | 1014.0 |
| 20260906074503 | 25 | 41 | 1.6 | 4.8 | 0.00 | 0.00 | 0.00 | 90 | 1013.9 |
| 20260906073747 | 25 | 41 | 3.2 | 6.4 | 0.00 | 0.00 | 0.00 | 89 | 1013.8 |
| 20260906073233 | 25 | 32 | 3.2 | 9.7 | 0.00 | 0.00 | 0.00 | 89 | 1013.9 |
| 20260906072732 | 25 | 26 | 3.2 | 9.7 | 0.00 | 0.00 | 0.00 | 89 | 1014.0 |
| 20260906072232 | 25 | 41 | 4.8 | 9.7 | 0.00 | 0.00 | 0.00 | 88 | 1014.0 |
| 20260906071733 | 25 | 31 | 6.4 | 6.4 | 0.00 | 0.00 | 0.00 | 88 | 1014.0 |
| 20260906071236 | 25 | 44 | 3.2 | 6.4 | 0.00 | 0.00 | 0.00 | 87 | 1014.0 |
| 20260906070735 | 25 | 41 | 3.2 | 6.4 | 0.00 | 0.00 | 0.00 | 87 | 1014.2 |
| 20260906070235 | 25 | 41 | 1.6 | 3.2 | 0.00 | 0.00 | 0.00 | 87 | 1014.0 |
| 20260906070000 | 25 | 41 | 0.0 | 3.2 | 0.00 | 0.00 | 0.00 | 86 | 1014.2 |
| 20260906065232 | 25 | 41 | 1.6 | 4.8 | 0.00 | 0.00 | 0.00 | 86 | 1014.0 |
| 20260906064732 | 25 | 41 | 1.6 | 4.8 | 0.00 | 0.00 | 0.00 | 86 | 1014.3 |
| 20260906064233 | 25 | 41 | 1.6 | 4.8 | 0.00 | 0.00 | 0.00 | 86 | 1014.2 |
| 20260906063733 | 25 | 41 | 1.6 | 3.2 | 0.00 | 0.00 | 0.00 | 86 | 1014.3 |
| 20260906063233 | 26 | 41 | 0.0 | 1.6 | 0.00 | 0.00 | 0.00 | 85 | 1014.2 |
| 20260906062944 | 26 | 41 | 0.0 | 3.2 | 0.00 | 0.00 | 0.00 | 85 | 1014.3 |
| 20260906062208 | 26 | 41 | 0.0 | 3.2 | 0.00 | 0.00 | 0.00 | 85 | 1014.3 |
| 20260906061927 | 26 | 41 | 1.6 | 3.2 | 0.00 | 0.00 | 0.00 | 85 | 1014.2 |
| 20260906061208 | 26 | 41 | 1.6 | 3.2 | 0.00 | 0.00 | 0.00 | 84 | 1014.5 |
| 20260906060709 | 26 | 41 | 1.6 | 3.2 | 0.00 | 0.00 | 0.00 | 84 | 1014.0 |
| 20260906060209 | 26 | 40 | 1.6 | 3.2 | 0.00 | 0.00 | 0.00 | 84 | 1014.2 |
| 20260906055656 | 26 | 40 | 1.6 | 3.2 | 0.00 | 0.00 | 0.00 | 84 | 1014.3 |
| 20260906055423 | 26 | 40 | 1.6 | 1.6 | 0.00 | 0.00 | 0.00 | 84 | 1014.2 |
| 20260906054656 | 26 | 40 | 1.6 | 3.2 | 0.00 | 0.00 | 0.00 | 83 | 1014.4 |
| 20260906054156 | 26 | 40 | 1.6 | 3.2 | 0.00 | 0.00 | 0.00 | 83 | 1014.3 |
| 20260906053657 | 26 | 39 | 1.6 | 3.2 | 0.00 | 0.00 | 0.00 | 83 | 1014.3 |
| 20260906053157 | 26 | 39 | 3.2 | 4.8 | 0.00 | 0.00 | 0.00 | 82 | 1014.2 |
| 20260906052656 | 26 | 39 | 1.6 | 4.8 | 0.00 | 0.00 | 0.00 | 82 | 1014.3 |
| 20260906052157 | 26 | 38 | 3.2 | 4.8 | 0.00 | 0.00 | 0.00 | 81 | 1014.6 |
| 20260906051657 | 26 | 38 | 3.2 | 4.8 | 0.00 | 0.00 | 0.00 | 81 | 1014.3 |
| 20260906051423 | 26 | 31 | 3.2 | 4.8 | 0.00 | 0.00 | 0.00 | 81 | 1014.3 |
| 20260906050645 | 26 | 33 | 3.2 | 4.8 | 0.00 | 0.00 | 0.00 | 81 | 1014.4 |
| 20260906050145 | 26 | 28 | 3.2 | 4.8 | 0.00 | 0.00 | 0.00 | 81 | 1014.3 |
| 20260906045645 | 26 | 11 | 3.2 | 4.8 | 0.00 | 0.00 | 0.00 | 81 | 1014.0 |
| 20260906045145 | 26 | 32 | 3.2 | 4.8 | 0.00 | 0.00 | 0.00 | 82 | 1013.8 |
| 20260906044644 | 26 | 24 | 1.6 | 3.2 | 0.00 | 0.00 | 0.00 | 82 | 1014.0 |
| 20260906044147 | 26 | 24 | 1.6 | 3.2 | 0.00 | 0.00 | 0.00 | 83 | 1014.0 |
| 20260906043648 | 26 | 24 | 1.6 | 3.2 | 0.00 | 0.00 | 0.00 | 83 | 1014.2 |
| 20260906043136 | 26 | 24 | 1.6 | 3.2 | 0.00 | 0.00 | 0.00 | 83 | 1014.2 |
| 20260906042903 | 26 | 24 | 3.2 | 3.2 | 0.00 | 0.00 | 0.00 | 83 | 1014.0 |
| 20260906042135 | 26 | 24 | 0.0 | 3.2 | 0.00 | 0.00 | 0.00 | 83 | 1014.0 |
| 20260906041635 | 26 | 24 | 0.0 | 3.2 | 0.00 | 0.00 | 0.00 | 83 | 1014.0 |
| 20260906041135 | 26 | 24 | 3.2 | 4.8 | 0.00 | 0.00 | 0.00 | 82 | 1014.0 |
| 20260906040636 | 26 | 24 | 1.6 | 4.8 | 0.00 | 0.00 | 0.00 | 82 | 1014.2 |
| 20260906040135 | 27 | 24 | 3.2 | 4.8 | 0.00 | 0.00 | 0.00 | 81 | 1013.7 |
| 20260906035635 | 27 | 24 | 1.6 | 6.4 | 0.00 | 0.00 | 0.00 | 81 | 1013.6 |
| 20260906035135 | 27 | 18 | 3.2 | 6.4 | 0.00 | 0.00 | 0.00 | 81 | 1013.8 |
| 20260906034635 | 27 | 2 | 3.2 | 3.2 | 0.00 | 0.00 | 0.00 | 81 | 1013.6 |
| 20260906034135 | 27 | 3 | 3.2 | 3.2 | 0.00 | 0.00 | 0.00 | 80 | 1013.5 |
| 20260906033635 | 27 | 3 | 1.6 | 6.4 | 0.00 | 0.00 | 0.00 | 80 | 1013.7 |
| 20260906033135 | 27 | 4 | 3.2 | 6.4 | 0.00 | 0.00 | 0.00 | 80 | 1013.6 |
| 20260906033117 | 27 | 17 | 1.6 | 6.4 | 0.00 | 0.00 | 0.00 | 79 | 1013.5 |
| 20260906032135 | 27 | 9 | 3.2 | 6.4 | 0.00 | 0.00 | 0.00 | 79 | 1013.6 |
| 20260906031635 | 27 | 7 | 3.2 | 6.4 | 0.00 | 0.00 | 0.00 | 78 | 1013.5 |
| 20260906031135 | 28 | 351 | 4.8 | 6.4 | 0.00 | 0.00 | 0.00 | 77 | 1013.5 |
| 20260906030636 | 28 | 16 | 4.8 | 6.4 | 0.00 | 0.00 | 0.00 | 76 | 1013.5 |
| 20260906030136 | 28 | 76 | 1.6 | 4.8 | 0.00 | 0.00 | 0.00 | 75 | 1013.5 |
| 20260906025636 | 28 | 76 | 3.2 | 3.2 | 0.00 | 0.00 | 0.00 | 75 | 1013.4 |
| 20260906025135 | 28 | 76 | 3.2 | 6.4 | 0.00 | 0.00 | 0.00 | 76 | 1013.4 |
| 20260906024634 | 28 | 76 | 1.6 | 6.4 | 0.00 | 0.00 | 0.00 | 76 | 1013.5 |
| 20260906024133 | 28 | 76 | 1.6 | 4.8 | 0.00 | 0.00 | 0.00 | 77 | 1013.2 |
| 20260906023634 | 28 | 76 | 3.2 | 4.8 | 0.00 | 0.00 | 0.00 | 77 | 1013.2 |
| 20260906023133 | 28 | 76 | 3.2 | 3.2 | 0.00 | 0.00 | 0.00 | 77 | 1013.0 |
| 20260906022849 | 28 | 76 | 0.0 | 4.8 | 0.00 | 0.00 | 0.00 | 77 | 1013.0 |
| 20260906022133 | 28 | 76 | 1.6 | 4.8 | 0.00 | 0.00 | 0.00 | 77 | 1013.0 |
| 20260906021633 | 27 | 76 | 1.6 | 3.2 | 0.00 | 0.00 | 0.00 | 78 | 1013.1 |
| 20260906021133 | 27 | 76 | 0.0 | 3.2 | 0.00 | 0.00 | 0.00 | 79 | 1012.8 |
| 20260906020633 | 27 | 76 | 0.0 | 3.2 | 0.00 | 0.00 | 0.00 | 79 | 1012.9 |
| 20260906020133 | 27 | 76 | 1.6 | 3.2 | 0.00 | 0.00 | 0.00 | 79 | 1012.6 |
| 20260906015630 | 27 | 76 | 1.6 | 3.2 | 0.00 | 0.00 | 0.00 | 80 | 1012.9 |
| 20260906015131 | 27 | 77 | 0.0 | 0.0 | 0.00 | 0.00 | 0.00 | 81 | 1012.6 |
| 20260906014631 | 27 | 77 | 0.0 | 0.0 | 0.00 | 0.00 | 0.00 | 81 | 1012.6 |
| 20260906014118 | 27 | 77 | 0.0 | 0.0 | 0.00 | 0.00 | 0.00 | 82 | 1012.5 |
| 20260906013606 | 27 | 77 | 0.0 | 0.0 | 0.00 | 0.00 | 0.00 | 82 | 1012.5 |
| 20260906013330 | 27 | 77 | 0.0 | 0.0 | 0.00 | 0.00 | 0.00 | 82 | 1012.5 |
| 20260906012829 | 27 | 77 | 0.0 | 1.6 | 0.00 | 0.00 | 0.00 | 82 | 1012.3 |
| 20260906012106 | 27 | 77 | 0.0 | 1.6 | 0.00 | 0.00 | 0.00 | 80 | 1012.3 |
| 20260906011607 | 27 | 77 | 0.0 | 1.6 | 0.00 | 0.00 | 0.00 | 80 | 1012.4 |
| 20260906011107 | 27 | 77 | 1.6 | 1.6 | 0.00 | 0.00 | 0.00 | 80 | 1012.3 |
| 20260906010832 | 27 | 77 | 0.0 | 0.0 | 0.00 | 0.00 | 0.00 | 79 | 1012.3 |
| 20260906010107 | 27 | 77 | 0.0 | 1.6 | 0.00 | 0.00 | 0.00 | 79 | 1012.4 |
| 20260906005830 | 27 | 77 | 0.0 | 1.6 | 0.00 | 0.00 | 0.00 | 79 | 1012.3 |
| 20260906005106 | 27 | 77 | 0.0 | 0.0 | 0.00 | 0.00 | 0.00 | 79 | 1012.2 |
| 20260906004606 | 27 | 77 | 0.0 | 0.0 | 0.00 | 0.00 | 0.00 | 78 | 1012.1 |
| 20260906004054 | 28 | 77 | 0.0 | 1.6 | 0.00 | 0.00 | 0.00 | 78 | 1012.1 |
| 20260906003541 | 28 | 77 | 0.0 | 3.2 | 0.00 | 0.00 | 0.00 | 78 | 1012.1 |
| 20260906003032 | 28 | 77 | 0.0 | 3.2 | 0.00 | 0.00 | 0.00 | 78 | 1012.1 |
| 20260906002533 | 28 | 77 | 1.6 | 1.6 | 0.00 | 0.00 | 0.00 | 77 | 1012.1 |
| 20260906002032 | 28 | 77 | 0.0 | 3.2 | 0.00 | 0.00 | 0.00 | 76 | 1012.3 |
| 20260906001532 | 29 | 77 | 1.6 | 4.8 | 0.00 | 0.00 | 0.00 | 75 | 1011.8 |
| 20260906001251 | 29 | 77 | 1.6 | 4.8 | 0.00 | 0.00 | 0.00 | 74 | 1012.2 |
| 20260906000533 | 29 | 64 | 1.6 | 9.7 | 0.00 | 0.00 | 0.00 | 72 | 1012.0 |
| 20260906000249 | 30 | 47 | 1.6 | 9.7 | 0.00 | 0.00 | 0.00 | 70 | 1012.2 |
| 20260905235533 | 30 | 37 | 6.4 | 9.7 | 0.00 | 0.00 | 0.00 | 67 | 1011.9 |
| 20260905235031 | 29 | 60 | 1.6 | 6.4 | 0.00 | 0.00 | 0.00 | 65 | 1012.0 |
| 20260905234531 | 29 | 34 | 1.6 | 1.6 | 0.00 | 0.00 | 0.00 | 66 | 1012.1 |
| 20260905234257 | 29 | 34 | 0.0 | 1.6 | 0.00 | 0.00 | 0.00 | 67 | 1012.1 |
| 20260905233532 | 29 | 34 | 0.0 | 4.8 | 0.00 | 0.00 | 0.00 | 68 | 1011.8 |
| 20260905233031 | 29 | 34 | 1.6 | 4.8 | 0.00 | 0.00 | 0.00 | 69 | 1012.0 |
| 20260905232532 | 30 | 114 | 3.2 | 9.7 | 0.00 | 0.00 | 0.00 | 68 | 1012.1 |
| 20260905232031 | 30 | 145 | 3.2 | 9.7 | 0.00 | 0.00 | 0.00 | 66 | 1012.0 |
| 20260905231531 | 30 | 15 | 3.2 | 9.7 | 0.00 | 0.00 | 0.00 | 61 | 1011.9 |
| 20260905231031 | 29 | 24 | 4.8 | 14.5 | 0.00 | 0.00 | 0.00 | 63 | 1012.4 |
| 20260905231011 | 29 | 331 | 4.8 | 17.7 | 0.00 | 0.00 | 0.00 | 63 | 1011.9 |
| 20260905230028 | 28 | 325 | 8.0 | 20.9 | 0.00 | 0.00 | 0.00 | 63 | 1012.2 |
| 20260905225528 | 29 | 11 | 11.3 | 25.7 | 0.00 | 0.00 | 0.00 | 66 | 1012.3 |
| 20260905225028 | 30 | 324 | 16.1 | 27.4 | 0.00 | 0.00 | 0.00 | 62 | 1012.4 |
| 20260905224527 | 31 | 348 | 9.7 | 30.6 | 0.00 | 0.00 | 0.00 | 58 | 1012.3 |
| 20260905224027 | 31 | 337 | 19.3 | 30.6 | 0.00 | 0.00 | 0.00 | 57 | 1012.6 |
| 20260905223527 | 31 | 333 | 19.3 | 33.8 | 0.00 | 0.00 | 0.00 | 57 | 1012.6 |
| 20260905223027 | 32 | 340 | 22.5 | 33.8 | 0.00 | 0.00 | 0.00 | 55 | 1012.7 |
| 20260905222528 | 33 | 324 | 9.7 | 33.8 | 0.00 | 0.00 | 0.00 | 52 | 1012.5 |
| 20260905222028 | 34 | 345 | 22.5 | 33.8 | 0.00 | 0.00 | 0.00 | 50 | 1012.5 |
| 20260905221528 | 36 | 10 | 11.3 | 16.1 | 0.00 | 0.00 | 0.00 | 49 | 1012.3 |
| 20260905221252 | 36 | 27 | 3.2 | 11.3 | 0.00 | 0.00 | 0.00 | 48 | 1011.8 |
| 20260905220527 | 35 | 36 | 3.2 | 12.9 | 0.00 | 0.00 | 0.00 | 50 | 1012.1 |
| 20260905220026 | 35 | 34 | 6.4 | 14.5 | 0.00 | 0.00 | 0.00 | 49 | 1012.1 |
| 20260905215527 | 35 | 1 | 6.4 | 20.9 | 0.00 | 0.00 | 0.00 | 49 | 1012.2 |
| 20260905215027 | 35 | 7 | 8.0 | 24.1 | 0.00 | 0.00 | 0.00 | 50 | 1012.2 |
| 20260905215012 | 35 | 1 | 9.7 | 24.1 | 0.00 | 0.00 | 0.00 | 49 | 1012.1 |
| 20260905214026 | 36 | 325 | 9.7 | 24.1 | 0.00 | 0.00 | 0.00 | 49 | 1012.3 |
| 20260905213529 | 36 | 40 | 6.4 | 16.1 | 0.00 | 0.00 | 0.00 | 50 | 1012.1 |
| 20260905213030 | 36 | 36 | 4.8 | 16.1 | 0.00 | 0.00 | 0.00 | 49 | 1012.0 |
| 20260905212529 | 36 | 333 | 8.0 | 16.1 | 0.00 | 0.00 | 0.00 | 47 | 1011.9 |
| 20260905212249 | 36 | 30 | 9.7 | 16.1 | 0.00 | 0.00 | 0.00 | 49 | 1012.2 |
| 20260905211527 | 36 | 9 | 11.3 | 17.7 | 0.00 | 0.00 | 0.00 | 48 | 1012.2 |
| 20260905211027 | 36 | 31 | 9.7 | 17.7 | 0.00 | 0.00 | 0.00 | 44 | 1012.2 |
| 20260905210526 | 37 | 326 | 3.2 | 11.3 | 0.00 | 0.00 | 0.00 | 43 | 1012.3 |
| 20260905210026 | 38 | 300 | 1.6 | 9.7 | 0.00 | 0.00 | 0.00 | 44 | 1012.4 |
| 20260905205746 | 38 | 281 | 3.2 | 9.7 | 0.00 | 0.00 | 0.00 | 44 | 1012.5 |
| 20260905205027 | 37 | 256 | 1.6 | 11.3 | 0.00 | 0.00 | 0.00 | 47 | 1012.5 |
| 20260905204750 | 37 | 282 | 3.2 | 11.3 | 0.00 | 0.00 | 0.00 | 47 | 1012.4 |
| 20260905204026 | 37 | 152 | 3.2 | 9.7 | 0.00 | 0.00 | 0.00 | 46 | 1012.5 |
| 20260905203526 | 36 | 296 | 3.2 | 11.3 | 0.00 | 0.00 | 0.00 | 46 | 1012.5 |
| 20260905203027 | 37 | 326 | 8.0 | 11.3 | 0.00 | 0.00 | 0.00 | 45 | 1012.5 |
| 20260905202527 | 37 | 275 | 4.8 | 12.9 | 0.00 | 0.00 | 0.00 | 47 | 1012.6 |
| 20260905202248 | 36 | 274 | 4.8 | 12.9 | 0.00 | 0.00 | 0.00 | 46 | 1013.0 |
| 20260905201527 | 36 | 29 | 1.6 | 9.7 | 0.00 | 0.00 | 0.00 | 47 | 1012.9 |
| 20260905201030 | 36 | 317 | 1.6 | 12.9 | 0.00 | 0.00 | 0.00 | 45 | 1012.9 |
| 20260905200529 | 37 | 320 | 4.8 | 14.5 | 0.00 | 0.00 | 0.00 | 42 | 1012.8 |
| 20260905200029 | 37 | 301 | 8.0 | 14.5 | 0.00 | 0.00 | 0.00 | 43 | 1013.2 |
| 20260905195529 | 37 | 349 | 6.4 | 12.9 | 0.00 | 0.00 | 0.00 | 42 | 1012.8 |
| 20260905195247 | 37 | 298 | 3.2 | 11.3 | 0.00 | 0.00 | 0.00 | 42 | 1013.1 |
| 20260905194529 | 37 | 320 | 4.8 | 12.9 | 0.00 | 0.00 | 0.00 | 42 | 1013.3 |
| 20260905194029 | 37 | 28 | 8.0 | 12.9 | 0.00 | 0.00 | 0.00 | 44 | 1013.3 |
| 20260905193747 | 37 | 41 | 4.8 | 12.9 | 0.00 | 0.00 | 0.00 | 43 | 1013.2 |
| 20260905193250 | 37 | 325 | 8.0 | 12.9 | 0.00 | 0.00 | 0.00 | 44 | 1013.4 |
| 20260905192529 | 37 | 252 | 3.2 | 14.5 | 0.00 | 0.00 | 0.00 | 45 | 1013.2 |
| 20260905192029 | 36 | 29 | 9.7 | 24.1 | 0.00 | 0.00 | 0.00 | 46 | 1013.4 |
| 20260905191529 | 36 | 338 | 9.7 | 25.7 | 0.00 | 0.00 | 0.00 | 45 | 1013.4 |
| 20260905191028 | 37 | 349 | 14.5 | 20.9 | 0.00 | 0.00 | 0.00 | 44 | 1013.4 |
| 20260905190528 | 37 | 283 | 3.2 | 12.9 | 0.00 | 0.00 | 0.00 | 45 | 1013.2 |
| 20260905190029 | 37 | 308 | 3.2 | 12.9 | 0.00 | 0.00 | 0.00 | 47 | 1013.5 |
| 20260905185529 | 37 | 281 | 6.4 | 17.7 | 0.00 | 0.00 | 0.00 | 45 | 1013.6 |
| 20260905185506 | 37 | 283 | 9.7 | 17.7 | 0.00 | 0.00 | 0.00 | 48 | 1013.6 |
| 20260905184528 | 36 | 331 | 4.8 | 17.7 | 0.00 | 0.00 | 0.00 | 46 | 1013.5 |
| 20260905184029 | 37 | 325 | 4.8 | 11.3 | 0.00 | 0.00 | 0.00 | 44 | 1013.2 |
| 20260905183528 | 37 | 284 | 1.6 | 20.9 | 0.00 | 0.00 | 0.00 | 46 | 1013.6 |
| 20260905183028 | 36 | 336 | 6.4 | 25.7 | 0.00 | 0.00 | 0.00 | 46 | 1013.7 |
| 20260905182528 | 36 | 20 | 17.7 | 25.7 | 0.00 | 0.00 | 0.00 | 47 | 1013.7 |
| 20260905182028 | 36 | 346 | 4.8 | 12.9 | 0.00 | 0.00 | 0.00 | 46 | 1013.7 |
| 20260905181529 | 36 | 6 | 6.4 | 17.7 | 0.00 | 0.00 | 0.00 | 46 | 1013.9 |
| 20260905181026 | 36 | 309 | 9.7 | 17.7 | 0.00 | 0.00 | 0.00 | 47 | 1013.8 |
| 20260905180526 | 36 | 310 | 3.2 | 12.9 | 0.00 | 0.00 | 0.00 | 47 | 1013.9 |
| 20260905180025 | 36 | 347 | 4.8 | 12.9 | 0.00 | 0.00 | 0.00 | 50 | 1014.3 |
| 20260905175525 | 36 | 307 | 1.6 | 12.9 | 0.00 | 0.00 | 0.00 | 47 | 1014.3 |
| 20260905175025 | 36 | 294 | 4.8 | 12.9 | 0.00 | 0.00 | 0.00 | 49 | 1014.4 |
| 20260905175017 | 36 | 271 | 3.2 | 12.9 | 0.00 | 0.00 | 0.00 | 50 | 1014.3 |
| 20260905174024 | 35 | 321 | 4.8 | 11.3 | 0.00 | 0.00 | 0.00 | 50 | 1014.5 |
| 20260905173523 | 36 | 292 | 6.4 | 12.9 | 0.00 | 0.00 | 0.00 | 51 | 1014.5 |
| 20260905173023 | 35 | 293 | 0.0 | 12.9 | 0.00 | 0.00 | 0.00 | 50 | 1014.5 |
| 20260905172523 | 36 | 16 | 6.4 | 11.3 | 0.00 | 0.00 | 0.00 | 53 | 1014.5 |
| 20260905172247 | 35 | 29 | 1.6 | 11.3 | 0.00 | 0.00 | 0.00 | 50 | 1014.6 |
| 20260905171526 | 35 | 329 | 3.2 | 11.3 | 0.00 | 0.00 | 0.00 | 50 | 1014.4 |
| 20260905171026 | 35 | 21 | 6.4 | 11.3 | 0.00 | 0.00 | 0.00 | 50 | 1014.5 |
| 20260905170526 | 35 | 54 | 1.6 | 6.4 | 0.00 | 0.00 | 0.00 | 52 | 1014.5 |
| 20260905170027 | 35 | 30 | 3.2 | 6.4 | 0.00 | 0.00 | 0.00 | 51 | 1014.5 |
| 20260905165526 | 35 | 311 | 1.6 | 6.4 | 0.00 | 0.00 | 0.00 | 53 | 1014.5 |
| 20260905165027 | 35 | 31 | 4.8 | 11.3 | 0.00 | 0.00 | 0.00 | 55 | 1014.7 |
| 20260905164527 | 35 | 318 | 4.8 | 11.3 | 0.00 | 0.00 | 0.00 | 54 | 1014.9 |
| 20260905164027 | 35 | 298 | 1.6 | 6.4 | 0.00 | 0.00 | 0.00 | 54 | 1014.7 |
| 20260905163526 | 35 | 329 | 4.8 | 4.8 | 0.00 | 0.00 | 0.00 | 53 | 1014.8 |
| 20260905163252 | 35 | 261 | 1.6 | 6.4 | 0.00 | 0.00 | 0.00 | 56 | 1014.5 |
| 20260905162526 | 35 | 54 | 1.6 | 9.7 | 0.00 | 0.00 | 0.00 | 56 | 1014.9 |
| 20260905162025 | 34 | 46 | 3.2 | 9.7 | 0.00 | 0.00 | 0.00 | 55 | 1014.8 |
| 20260905161522 | 34 | 24 | 6.4 | 9.7 | 0.00 | 0.00 | 0.00 | 58 | 1014.7 |
| 20260905161243 | 34 | 288 | 3.2 | 6.4 | 0.00 | 0.00 | 0.00 | 57 | 1014.7 |
| 20260905160522 | 34 | 287 | 1.6 | 6.4 | 0.00 | 0.00 | 0.00 | 57 | 1014.7 |
| 20260905160023 | 34 | 299 | 1.6 | 6.4 | 0.00 | 0.00 | 0.00 | 60 | 1014.8 |